DW8097 Weather Reports


time (UTC)temp
F
wind
direction
speed
knots
gust
knots
rain 1hr
in
rain 24hr
in
rain mn
in
humidity
%
barometer
mb
20260901143109 75 345 0.0 0.0 0.00 0.00 0.00 78 1012.4
20260901141555 73 355 0.0 0.0 0.00 0.00 0.00 81 1012.3
20260901140104 72 11 0.9 3.5 0.00 0.00 0.00 84 1012.4
20260901134550 70 329 0.0 0.0 0.00 0.00 0.00 86 1012.4
20260901133047 69 322 0.0 0.0 0.00 0.00 0.00 87 1012.2
20260901131545 66 315 0.0 0.0 0.00 0.00 0.00 90 1012.0
20260901130044 66 229 0.0 0.0 0.00 0.00 0.00 89 1011.9
20260901124542 66 229 0.0 0.0 0.00 0.00 0.00 91 1011.9
20260901123042 65 253 0.0 0.0 0.00 0.00 0.00 92 1012.0
20260901121555 63 253 0.0 0.0 0.00 0.00 0.00 93 1011.8
20260901120037 62 253 0.0 0.0 0.00 0.00 0.00 93 1011.7
20260901114533 63 253 0.0 0.0 0.00 0.00 0.00 93 1011.4
20260901113032 63 253 0.0 0.0 0.00 0.00 0.00 92 1011.2
20260901111526 63 294 0.0 0.0 0.00 0.00 0.00 92 1011.3
20260901110032 63 247 0.0 0.0 0.00 0.00 0.00 92 1011.1
20260901104527 63 246 0.0 0.0 0.00 0.00 0.00 92 1011.1
20260901103026 64 246 0.0 0.0 0.00 0.00 0.00 92 1011.1
20260901101526 64 246 0.0 0.0 0.00 0.00 0.00 92 1010.9
20260901100019 63 224 0.0 0.0 0.00 0.00 0.00 92 1010.8
20260901094516 64 310 0.0 0.0 0.00 0.00 0.00 93 1010.8
20260901093015 63 243 0.0 0.0 0.00 0.00 0.00 92 1010.6
20260901091511 64 315 0.0 0.0 0.00 0.00 0.00 92 1010.8
20260901090013 64 315 0.0 0.0 0.00 0.00 0.00 93 1010.6
20260901084507 64 229 0.0 0.0 0.00 0.00 0.00 92 1010.5
20260901083007 65 229 0.0 0.0 0.00 0.00 0.00 92 1010.6
20260901081505 65 229 0.0 0.0 0.00 0.00 0.00 92 1010.5
20260901080005 66 249 0.0 0.0 0.00 0.00 0.00 91 1010.8
20260901074558 65 227 0.0 0.0 0.00 0.00 0.00 91 1010.8
20260901073058 65 227 0.0 0.0 0.00 0.00 0.00 91 1011.2
20260901071552 67 289 0.0 0.0 0.00 0.00 0.00 90 1011.1
20260901070056 67 348 0.0 0.0 0.00 0.00 0.00 91 1011.2
20260901064524 67 245 0.0 0.0 0.00 0.00 0.00 91 1010.9
20260901063026 67 244 0.0 0.0 0.00 0.00 0.00 90 1011.0
20260901061511 67 304 0.0 0.0 0.00 0.00 0.00 91 1010.8
20260901060007 67 223 0.0 0.0 0.00 0.00 0.00 91 1010.6
20260901054504 68 264 0.0 0.0 0.00 0.00 0.00 91 1010.5
20260901053000 68 235 0.0 0.0 0.00 0.00 0.00 90 1010.3
20260901051528 69 281 0.0 0.0 0.00 0.00 0.00 91 1010.2
20260901050025 69 308 0.0 0.0 0.00 0.00 0.00 89 1010.1
20260901044518 70 236 0.0 0.0 0.00 0.00 0.00 89 1010.1
20260901043023 70 268 0.0 0.0 0.00 0.00 0.00 90 1010.0
20260901041516 71 268 0.0 0.0 0.00 0.00 0.00 91 1010.2
20260901040016 71 248 0.0 0.0 0.00 0.00 0.00 91 1009.9
20260901034502 71 248 0.0 0.0 0.00 0.00 0.00 91 1009.8
20260901033057 72 248 0.0 0.0 0.00 0.00 0.00 90 1009.7
20260901031553 73 248 0.0 0.0 0.00 0.00 0.00 90 1009.7
20260901030053 74 255 0.0 0.0 0.00 0.00 0.00 90 1009.7
20260901024543 75 255 0.0 0.0 0.00 0.00 0.00 90 1009.4
20260901023039 75 254 0.0 0.0 0.00 0.00 0.00 90 1009.3
20260901021534 76 254 0.0 0.0 0.00 0.00 0.00 88 1009.2
20260901020029 77 254 0.0 0.0 0.00 0.00 0.00 88 1009.2
20260901014522 78 254 0.0 0.0 0.00 0.00 0.00 86 1009.1
20260901013020 80 316 0.0 0.0 0.00 0.00 0.00 85 1008.9
20260901011512 80 340 0.0 0.0 0.00 0.00 0.00 82 1008.7
20260901010011 81 334 0.0 0.0 0.00 0.00 0.00 82 1008.5
20260901004503 82 257 0.0 0.0 0.00 0.00 0.00 77 1008.4
20260901003055 83 229 0.0 0.0 0.00 0.00 0.00 76 1008.3
20260901001551 85 231 0.0 0.0 0.00 0.00 0.00 73 1008.3
20260901000049 86 271 0.0 0.0 0.00 0.00 0.00 72 1008.2
20260831234548 87 200 0.0 0.9 0.00 0.00 0.00 69 1008.3
20260831233017 88 242 0.0 2.6 0.00 0.00 0.00 67 1008.0
20260831231520 88 268 0.0 2.6 0.00 0.00 0.00 66 1008.1
20260831230016 90 157 0.0 4.3 0.00 0.00 0.00 61 1007.9
20260831224514 90 125 0.0 4.3 0.00 0.00 0.00 63 1007.9
20260831223013 90 93 0.0 4.3 0.00 0.00 0.00 62 1007.9
20260831221526 89 130 0.0 6.1 0.00 0.00 0.00 64 1007.8
20260831220010 92 111 0.9 4.3 0.00 0.00 0.00 60 1007.8
20260831214527 92 92 0.0 2.6 0.00 0.00 0.00 61 1007.7
20260831213007 92 116 0.0 4.3 0.00 0.00 0.00 60 1007.7
20260831211507 92 140 0.0 3.5 0.00 0.00 0.00 59 1007.5
20260831210005 92 205 0.0 5.2 0.00 0.00 0.00 59 1007.5
20260831204603 91 132 0.0 6.1 0.00 0.00 0.00 62 1007.5
20260831203058 91 71 0.0 1.7 0.00 0.00 0.00 62 1007.5
20260831201556 90 123 0.0 0.0 0.00 0.00 0.00 61 1007.6
20260831200052 90 159 0.0 4.3 0.00 0.00 0.00 65 1007.6
20260831194549 89 355 0.0 0.0 0.00 0.00 0.00 64 1007.5
20260831193045 87 111 0.0 0.0 0.00 0.00 0.00 65 1007.7
20260831191543 87 149 0.0 0.0 0.00 0.00 0.00 68 1007.7
20260831190100 87 97 0.0 0.0 0.00 0.00 0.00 67 1007.8
20260831184543 88 99 0.0 0.9 0.00 0.00 0.00 67 1007.9
20260831183049 86 138 0.0 0.0 0.00 0.00 0.00 67 1007.8
20260831181536 87 88 0.0 0.0 0.00 0.00 0.00 68 1007.8
20260831180002 85 205 0.0 0.0 0.00 0.00 0.00 68 1008.0
20260831174608 85 261 0.0 0.0 0.00 0.00 0.00 71 1007.9
20260831173058 84 271 0.0 3.5 0.00 0.00 0.00 72 1008.1
20260831171555 85 271 0.0 3.5 0.00 0.00 0.00 71 1008.2
20260831170052 85 355 0.0 0.0 0.00 0.00 0.00 70 1008.2
20260831164602 85 81 0.0 0.0 0.00 0.00 0.00 70 1008.1
20260831163046 85 107 0.0 0.0 0.00 0.00 0.00 69 1008.0
20260831161540 84 106 0.0 0.0 0.00 0.00 0.00 70 1007.8
20260831160043 85 122 0.0 0.0 0.00 0.00 0.00 68 1007.7
20260831154539 84 97 0.0 0.9 0.00 0.00 0.00 70 1007.5
20260831153033 83 346 0.0 1.7 0.00 0.00 0.00 73 1007.5
20260831151537 81 273 0.0 1.7 0.00 0.00 0.00 74 1007.4
20260831150032 81 252 0.0 2.6 0.00 0.00 0.00 74 1007.1
20260831144531 81 296 0.0 0.9 0.00 0.00 0.00 77 1007.2